This is the latest recevied weather packets stored in our database for station/object W8CEN. If no packets are shown the sender has not sent any weather packets the latest 10 day(s).
| Time | Temp. | Humidity | Pressure | Rain* | Wind** | Luminosity | Snow |
|---|---|---|---|---|---|---|---|
| 1778011948 | 11.67° C | 91% | 987 hPa | 0 mm | - | 70 W/m² | - |
| 1778011645 | 11.67° C | 92% | 986.9 hPa | 0 mm | - | 141 W/m² | - |
| 1778011342 | 11.11° C | 91% | 987.2 hPa | 0 mm | - | 141 W/m² | - |
| 1778011038 | 11.11° C | 90% | 987.1 hPa | 1.27 mm | - | 151 W/m² | - |
| 1778010735 | 11.11° C | 90% | 987.3 hPa | 1.27 mm | - | 138 W/m² | - |
| 1778010433 | 11.11° C | 90% | 987.2 hPa | 0 mm | - | 106 W/m² | - |
| 1778010129 | 11.11° C | 91% | 987.3 hPa | 1.78 mm | - | 132 W/m² | - |
| 1778009825 | 11.67° C | 91% | 987.1 hPa | 1.78 mm | - | 120 W/m² | - |
| 1778009522 | 11.67° C | 92% | 987.3 hPa | 1.27 mm | - | 110 W/m² | - |
| 1778009221 | 11.67° C | 91% | 987.3 hPa | 3.05 mm | - | 58 W/m² | - |
| 1778008918 | 11.67° C | 92% | 987.3 hPa | 1.78 mm | - | 63 W/m² | - |
| 1778008616 | 11.67° C | 92% | 987.3 hPa | 1.27 mm | - | 62 W/m² | - |
| 1778008314 | 11.67° C | 91% | 987.3 hPa | 1.27 mm | - | 58 W/m² | - |
| 1778008010 | 11.67° C | 90% | 987.1 hPa | 1.78 mm | - | 46 W/m² | - |
| 1778007710 | 11.67° C | 91% | 987.1 hPa | 1.78 mm | - | 74 W/m² | - |
| 1778007407 | 11.67° C | 90% | 986.7 hPa | 3.05 mm | - | 104 W/m² | - |
| 1778007103 | 11.67° C | 90% | 986.8 hPa | 4.32 mm | - | 86 W/m² | - |
| 1778006800 | 12.22° C | 89% | 987.2 hPa | 3.05 mm | - | 79 W/m² | - |
| 1778006497 | 12.22° C | 89% | 987.1 hPa | 3.05 mm | - | 75 W/m² | - |
| 1778006193 | 12.78° C | 87% | 986.9 hPa | 3.56 mm | - | 83 W/m² | - |
| 1778005891 | 12.78° C | 86% | 986.7 hPa | 3.05 mm | - | 60 W/m² | - |
| 1778005587 | 13.33° C | 86% | 986.8 hPa | 3.05 mm | - | 90 W/m² | - |
| 1778005284 | 13.33° C | 85% | 986.6 hPa | 3.05 mm | - | 49 W/m² | - |
| 1778004981 | 13.33° C | 83% | 986.5 hPa | 3.05 mm | - | 79 W/m² | - |
| 1778004678 | 13.89° C | 81% | 986.3 hPa | 1.78 mm | - | 81 W/m² | - |
* Rain latest hour (hover to see other rain measurements)
** Current wind speed in m/s (hover to see current wind gust speed)